Theta_e
314 316 317 318 319 320 321 321 321 320 321 320 319 320 322 323 323 323 324 326 328 327 325 324 324 325 327 327 328 330 332 335 341 343 345 348 348 349 351 351 352 351 351 351
315 316 317 318 319 319 320 320 320 321 319 320 320 320 320 321 322 322 323 323 324 324 326 328 328 327 327 327 329 328 321 325 337 342 343 343 346 346 349 351 352 351 351 352
316 316 317 317 318 320 320 320 320 320 321 320 320 321 321 321 321 322 322 324 326 326 328 330 331 332 331 330 331 333 323 324 334 341 343 347 349 350 350 350 352 351 352 352
316 317 316 317 318 320 321 320 320 320 321 321 320 320 321 321 321 322 322 325 325 327 328 330 331 333 333 333 331 328 331 337 341 347 343 345 347 345 345 348 348 351 353 353
317 317 317 318 318 319 320 321 320 321 322 321 320 319 319 323 321 322 323 326 327 327 328 330 331 333 334 337 336 336 337 342 344 346 347 344 348 345 345 346 348 349 350 350
318 317 319 320 320 320 320 320 321 320 321 322 322 322 321 322 323 323 325 325 326 326 327 328 330 331 334 337 340 342 342 343 343 343 345 346 349 348 349 347 349 348 347 345
320 319 320 320 320 320 320 321 322 322 321 322 323 323 323 324 322 327 327 326 325 325 325 326 327 328 330 332 334 336 338 339 340 341 342 343 344 345 348 345 345 343 340 337
320 321 319 319 320 320 320 322 323 323 323 321 323 323 326 326 326 325 326 326 326 326 326 325 325 325 325 326 327 327 328 329 330 330 331 332 333 334 334 334 334 332 330 330
320 321 320 321 321 322 322 322 323 325 325 325 324 329 328 326 326 326 326 326 326 325 325 325 326 325 325 326 326 326 327 327 327 326 327 321 319 320 327 328 323 326 326 327
322 322 321 321 321 321 323 323 324 324 326 325 323 325 325 327 327 326 326 324 324 324 323 324 324 325 326 325 324 324 323 324 323 323 323 322 321 320 320 319 320 321 322 324
323 323 323 322 322 322 323 326 323 324 323 324 326 327 329 328 328 327 325 324 324 324 323 323 322 322 322 322 322 322 321 321 321 320 320 320 321 321 321 320 320 321 318 317
323 323 328 324 322 323 325 321 323 327 327 327 328 328 326 327 328 326 325 324 323 322 322 322 321 321 320 319 319 318 318 318 318 317 317 317 317 318 318 319 318 318 318 318
323 325 330 327 325 323 324 325 325 326 328 329 328 328 326 326 327 326 325 323 322 321 321 321 320 319 318 318 318 318 317 317 317 316 316 316 316 317 317 318 317 317 317 316
322 323 326 328 327 325 323 322 323 324 331 328 326 326 327 325 325 323 322 321 321 319 319 318 318 318 318 318 317 317 317 316 315 315 315 315 314 314 314 314 314 314 314 314
322 325 326 325 322 322 324 324 324 325 325 328 324 322 322 321 320 318 317 318 318 318 318 318 318 318 318 318 317 317 316 315 315 314 314 313 313 313 312 312 312 312 312 312
324 327 326 325 321 320 320 319 319 320 320 320 320 319 319 317 317 318 319 319 318 318 318 318 318 317 317 317 316 316 315 315 314 314 313 312 312 311 311 310 310 309 310 310
324 325 325 324 321 319 319 318 318 317 317 317 318 318 320 320 319 319 319 319 318 318 318 317 317 317 316 316 316 315 314 313 312 312 311 310 310 309 309 309 309 308 308 308
324 322 321 322 320 317 320 318 317 318 318 317 317 318 318 318 319 319 318 318 318 317 317 316 316 315 315 314 313 313 312 312 311 311 309 309 308 308 307 307 307 307 308 309
321 321 323 321 321 319 318 318 319 318 319 319 320 320 319 319 319 318 318 318 317 316 316 315 315 314 314 313 312 312 311 311 309 308 308 307 306 306 306 306 306 306 304 303
319 321 322 319 322 321 325 320 318 317 320 321 319 319 318 317 318 319 317 317 316 315 315 314 314 313 312 312 311 311 310 308 308 307 306 306 306 305 304 303 302 301 300 299
320 320 322 320 323 320 321 318 317 318 323 319 317 316 315 317 316 316 315 314 314 313 313 313 312 312 311 311 310 308 307 306 306 305 305 304 302 300 300 299 298 298 298 298
320 322 323 323 321 321 319 317 317 321 319 316 314 314 314 315 315 314 313 313 312 312 312 311 311 310 310 309 307 306 305 305 304 302 300 299 298 297 297 298 299 299 298 298
321 321 322 321 321 321 317 318 317 316 314 314 314 314 313 313 313 312 312 312 311 311 310 310 309 309 307 306 305 304 304 302 299 297 297 296 296 298 299 298 299 299 299 298
319 320 319 319 320 317 316 315 314 313 313 313 313 313 312 312 312 311 311 310 310 309 308 307 306 305 305 304 304 302 299 297 296 294 294 296 296 298 299 299 299 299 300 299
318 318 317 317 317 315 312 313 313 313 312 312 312 311 311 310 310 309 308 307 306 305 304 304 304 303 303 302 299 297 296 295 294 294 294 294 296 298 300 300 301 300 303 299
315 315 316 319 315 315 314 313 312 312 311 310 309 308 307 306 305 304 304 304 304 303 303 303 301 299 298 296 295 294 293 292 292 293 293 295 297 299 300 300 304 303 301 302
Wind_Speed
23 16 22 29 26 23 23 23 24 13 16 18 16 17 16 16 26 17 21 21 22 18 11 10 11 12 12 15 17 18 20 21 22 18 18 17 19 19 19 21 23 22 20 17
18 22 22 20 19 22 22 12 20 7 12 17 16 18 18 16 28 21 24 22 14 8 10 5 5 5 8 12 14 20 24 24 26 19 19 17 16 17 18 18 23 21 20 18
19 22 20 20 22 20 19 16 15 15 19 19 18 20 18 20 17 18 11 1 6 7 4 1 1 1 3 6 8 9 18 21 23 21 18 16 15 16 17 18 20 21 21 20
18 19 24 20 22 20 16 14 19 13 14 13 16 8 16 19 17 14 14 13 11 4 2 3 3 4 3 2 3 6 8 10 16 17 18 17 17 16 18 19 19 19 20 19
17 19 23 19 18 17 20 20 15 11 14 13 19 8 13 22 18 20 14 3 6 4 3 4 6 6 6 6 4 1 3 5 10 12 15 17 18 15 15 16 17 22 18 18
20 21 14 17 19 19 22 5 12 15 14 14 17 12 11 18 20 20 13 9 5 4 5 6 7 7 7 7 8 8 6 4 2 4 6 12 11 13 13 16 13 13 15 15
13 13 15 16 18 15 17 13 10 10 11 11 21 17 7 12 13 21 17 13 10 7 7 6 7 9 10 11 11 11 12 12 11 9 6 2 6 10 10 11 11 14 14 13
14 16 20 11 15 14 21 18 12 11 13 15 8 7 9 12 12 12 14 10 8 7 6 6 5 6 8 10 11 12 12 12 11 11 10 8 5 2 2 6 3 10 11 12
16 15 16 17 17 17 15 18 19 10 10 4 10 12 9 14 12 12 12 11 7 4 4 2 4 2 2 4 7 7 7 8 8 7 6 3 0 2 5 7 9 8 11 13
11 9 15 11 12 13 12 13 9 7 8 11 8 15 8 19 15 14 12 10 7 5 4 2 2 1 2 2 2 4 5 4 5 5 5 5 7 9 12 13 15 17 20 22
10 10 11 14 14 14 12 11 11 11 10 10 10 6 14 13 15 13 14 11 7 4 4 4 3 3 3 1 1 2 3 4 5 6 7 7 8 9 11 14 15 16 20 22
9 9 13 18 16 5 12 19 14 8 12 8 7 5 4 2 12 15 14 11 2 3 5 6 4 4 4 3 4 4 6 6 7 9 10 11 12 13 14 15 17 19 21 22
8 6 9 5 8 9 10 10 6 5 1 9 8 5 7 2 6 6 6 7 8 4 8 7 6 5 4 5 5 6 7 8 10 11 13 15 16 17 18 19 21 22 23 24
2 5 11 5 1 8 16 15 9 11 6 9 14 10 13 9 6 8 9 9 12 7 10 10 8 7 6 6 7 9 11 12 14 16 18 19 20 21 22 23 24 24 24 26
6 7 7 2 6 1 11 12 14 16 15 13 9 8 2 5 2 6 10 11 11 11 9 8 8 7 9 10 12 14 15 16 17 19 21 22 23 24 24 25 26 27 27 28
10 6 14 18 7 8 9 10 11 12 12 11 10 11 7 7 5 6 3 2 7 6 6 8 10 11 13 15 15 17 19 20 20 22 24 25 26 26 26 28 29 30 30 31
9 5 6 11 6 4 8 14 15 12 11 9 10 7 6 2 4 5 5 5 7 8 8 12 12 14 14 16 18 20 22 23 24 26 27 28 28 29 29 29 29 31 32 33
10 8 7 5 5 8 9 7 6 3 9 4 7 7 2 6 7 7 9 12 9 8 10 12 15 17 17 18 21 23 24 25 26 27 27 28 28 30 30 30 31 33 32 30
6 8 2 4 9 1 13 4 2 2 8 3 6 4 5 9 9 12 6 5 6 10 12 16 18 20 21 22 24 24 25 26 26 28 28 29 29 31 31 31 31 31 32 36
6 3 4 5 3 4 11 8 4 2 5 5 2 4 8 9 8 3 6 10 12 14 17 18 21 22 24 24 24 25 27 27 28 29 29 30 29 30 31 31 32 31 30 41
9 6 8 5 3 1 11 6 1 6 5 3 4 8 12 10 13 13 15 15 18 20 21 23 25 26 27 26 26 28 29 29 29 29 29 29 31 31 29 29 33 45 40 39
8 7 6 3 4 5 10 6 4 7 1 5 10 13 16 16 17 17 18 17 17 20 24 26 28 29 28 27 28 29 30 29 28 30 31 29 29 29 38 40 37 34 33 34
5 5 5 5 2 8 6 8 5 4 7 9 11 13 15 14 15 17 18 19 22 24 26 27 28 29 28 27 27 30 29 28 31 30 30 30 38 38 32 32 31 31 30 31
2 5 1 4 10 5 3 2 4 6 7 9 10 10 11 14 17 20 22 24 27 27 27 27 28 28 29 28 26 25 28 28 29 31 35 40 36 33 30 28 29 30 30 29
5 9 6 6 9 5 4 5 5 5 6 6 9 13 14 17 20 23 25 26 27 27 26 25 27 28 26 25 27 26 26 31 35 41 36 35 33 30 29 28 28 29 27 26
6 1 4 5 10 7 8 4 4 7 6 8 11 15 16 18 20 22 23 24 24 25 26 25 24 27 28 26 26 26 28 35 35 34 35 33 30 28 29 29 31 29 28 25
Wind_Direction
188 214 207 201 211 219 220 217 222 218 178 198 221 248 238 218 262 271 265 237 252 260 257 279 269 254 249 245 237 236 229 221 229 222 224 234 231 236 234 233 228 219 223 218
185 215 201 212 222 223 246 209 219 161 217 192 204 233 251 227 231 207 248 235 213 228 238 253 268 268 249 246 241 239 238 231 229 225 227 228 239 239 239 236 232 220 219 214
195 198 216 214 211 219 223 230 216 206 197 198 204 220 212 237 239 256 225 270 165 223 220 197 81 263 242 234 234 241 242 234 227 218 231 232 225 232 231 229 226 223 218 216
209 209 203 204 216 217 213 213 226 207 188 213 216 226 213 215 213 245 223 207 207 194 144 81 56 38 13 314 277 255 230 229 218 223 218 232 232 239 233 231 230 226 226 223
208 215 190 212 211 201 234 194 225 225 200 243 178 235 258 185 207 202 203 221 202 163 87 66 57 48 32 38 33 4 205 213 204 221 226 229 242 240 238 238 229 222 220 218
215 194 202 205 210 192 229 157 205 215 232 221 225 209 229 181 207 191 159 166 213 126 109 90 76 63 57 59 58 64 70 83 160 226 244 221 235 242 244 230 241 239 224 218
218 196 200 213 205 187 218 204 196 195 218 233 208 206 210 163 179 147 156 169 154 150 116 73 71 71 67 67 72 69 74 74 76 83 87 117 225 232 240 231 230 227 218 222
198 184 203 189 224 195 207 215 234 190 198 213 171 193 127 127 125 127 150 152 159 163 135 113 74 85 78 68 70 70 71 73 73 71 66 70 85 134 152 197 238 217 237 236
198 197 172 198 220 202 194 228 246 311 279 268 159 108 126 152 153 152 162 168 153 163 159 161 134 110 90 63 67 68 74 67 67 61 63 59 186 234 260 243 259 273 270 267
201 152 166 183 237 238 279 207 216 230 271 233 235 182 207 169 163 168 161 170 166 186 195 179 227 195 241 188 94 60 50 38 25 16 354 312 307 291 273 268 266 265 260 252
238 190 197 164 211 206 211 243 212 252 216 225 246 86 106 156 159 164 179 158 184 221 256 241 250 229 237 240 309 8 3 343 335 332 329 317 309 300 291 283 282 280 278 278
219 221 181 200 200 265 289 209 222 223 248 269 302 115 81 72 153 170 182 167 214 304 306 282 275 262 272 273 297 311 333 323 310 313 312 304 296 292 288 283 281 280 280 280
187 227 168 208 181 219 238 225 271 292 267 255 245 238 11 142 138 141 260 241 202 237 277 279 262 255 268 278 293 291 301 299 301 298 297 296 292 290 288 284 283 282 280 277
247 229 232 234 349 252 210 232 237 254 226 247 256 229 197 161 188 206 231 263 282 293 272 259 264 253 254 277 286 296 299 296 298 297 296 295 292 289 286 285 284 283 281 279
195 224 261 79 239 139 200 209 221 228 231 231 259 267 190 65 347 294 289 290 284 273 246 239 254 265 282 290 296 298 298 297 297 294 293 292 292 290 288 285 284 282 280 280
204 182 238 184 178 247 249 244 243 224 233 243 252 261 296 289 314 262 260 267 281 269 262 259 263 277 288 293 297 298 297 298 296 295 293 292 291 289 287 285 284 284 282 281
191 175 212 242 136 264 254 235 231 232 235 246 253 261 70 154 257 275 280 289 278 267 289 294 292 287 294 298 298 297 298 298 297 295 295 294 292 289 288 287 285 283 282 282
194 199 172 181 151 225 89 64 29 299 242 210 238 288 301 277 277 281 301 295 286 295 303 301 299 298 297 297 296 296 296 295 296 295 295 294 292 290 289 287 286 286 285 280
206 197 197 226 199 14 153 115 57 266 148 122 359 317 294 7 327 275 28 11 333 326 309 300 299 298 297 296 297 296 296 296 296 296 296 295 294 292 291 289 288 284 284 281
202 169 170 214 248 226 81 98 67 351 153 55 354 2 8 325 280 132 7 315 305 301 291 297 298 298 297 297 299 298 299 299 299 299 298 297 296 293 291 290 289 286 284 285
173 172 185 207 217 0 110 111 268 238 94 61 2 328 311 300 310 318 319 310 309 308 300 299 299 299 300 303 303 301 302 302 301 300 298 297 296 296 294 292 289 294 296 295
175 162 201 160 182 244 114 155 283 67 311 341 322 316 308 319 320 320 314 310 303 301 300 301 301 301 302 303 303 303 302 304 302 300 302 301 299 294 297 301 303 303 300 297
181 167 181 167 177 101 120 67 70 340 316 314 317 333 348 328 307 300 300 305 306 308 305 304 303 302 300 302 304 304 304 302 304 304 303 301 300 306 311 309 307 306 304 299
121 114 156 161 152 151 129 2 313 315 326 343 344 322 314 316 315 312 309 310 309 308 308 306 304 302 303 305 304 306 306 305 299 305 302 307 311 312 311 311 312 311 309 306
44 158 206 180 137 131 139 65 19 340 343 341 338 329 322 315 313 314 312 311 310 309 309 309 307 305 306 308 308 308 307 296 299 306 309 312 312 313 315 314 315 315 312 310
178 96 208 81 80 64 109 79 18 37 3 347 337 325 322 322 319 318 317 315 314 314 313 313 312 309 308 309 309 309 301 307 311 311 311 313 313 315 317 319 319 319 319 320